This is the latest recevied weather packets stored in our database for station/object KC1BRV. If no packets are shown the sender has not sent any weather packets the latest 10 day(s).
| Time | Temp. | Humidity | Pressure | Rain* | Wind** | Luminosity | Snow |
|---|---|---|---|---|---|---|---|
| 1777671691 | 16.67° C | 32% | 1010.2 hPa | 0 mm | - | 34 W/m² | - |
| 1777671388 | 16.67° C | 32% | 1010.4 hPa | 0 mm | - | 35 W/m² | - |
| 1777671084 | 16.67° C | 32% | 1010.2 hPa | 0 mm | - | 35 W/m² | - |
| 1777670781 | 16.67° C | 30% | 1010.1 hPa | 0 mm | - | 36 W/m² | - |
| 1777670477 | 16.67° C | 33% | 1010 hPa | 0 mm | - | 36 W/m² | - |
| 1777670174 | 17.22° C | 31% | 1009.9 hPa | 0 mm | - | 37 W/m² | - |
| 1777669872 | 16.67° C | 32% | 1010 hPa | 0 mm | - | 37 W/m² | - |
| 1777669568 | 16.67° C | 33% | 1009.9 hPa | 0 mm | - | 38 W/m² | - |
| 1777669265 | 16.67° C | 31% | 1010.1 hPa | 0 mm | - | 38 W/m² | - |
| 1777668961 | 16.67° C | 33% | 1009.9 hPa | 0 mm | - | 39 W/m² | - |
| 1777668659 | 17.22° C | 30% | 1010.1 hPa | 0 mm | - | 40 W/m² | - |
| 1777668355 | 17.22° C | 34% | 1009.9 hPa | 0 mm | - | 40 W/m² | - |
| 1777668051 | 17.22° C | 34% | 1010 hPa | 0 mm | - | 41 W/m² | - |
| 1777667748 | 17.22° C | 32% | 1009.9 hPa | 0 mm | - | 41 W/m² | - |
| 1777667445 | 17.22° C | 33% | 1010 hPa | 0 mm | - | 41 W/m² | - |
| 1777667142 | 17.22° C | 33% | 1010 hPa | 0 mm | - | 41 W/m² | - |
| 1777666839 | 17.22° C | 33% | 1010 hPa | 0 mm | - | 42 W/m² | - |
| 1777666536 | 17.22° C | 34% | 1009.9 hPa | 0 mm | - | 70 W/m² | - |
| 1777666232 | 17.22° C | 31% | 1010 hPa | 0 mm | - | 382 W/m² | - |
| 1777665930 | 17.78° C | 34% | 1009.9 hPa | 0 mm | - | 468 W/m² | - |
| 1777665627 | 17.78° C | 31% | 1010.1 hPa | 0 mm | - | 477 W/m² | - |
| 1777665325 | 17.78° C | 31% | 1010.1 hPa | 0 mm | - | 490 W/m² | - |
| 1777665020 | 17.22° C | 31% | 1010 hPa | 0 mm | - | 506 W/m² | - |
| 1777664716 | 17.22° C | 33% | 1010.1 hPa | 0 mm | - | 514 W/m² | - |
| 1777664412 | 17.78° C | 33% | 1010.1 hPa | 0 mm | - | 529 W/m² | - |
* Rain latest hour (hover to see other rain measurements)
** Current wind speed in m/s (hover to see current wind gust speed)